FW1519 Weather Reports


time (UTC)temp
F
wind
direction
speed
knots
gust
knots
rain 1hr
in
rain 24hr
in
rain mn
in
humidity
%
barometer
mb
20260504045830 58 192 4.3 9.6 0.00 0.00 0.00 45 999.4
20260504045329 58 191 5.2 9.6 0.00 0.00 0.00 44 999.5
20260504044831 58 217 5.2 9.6 0.00 0.00 0.00 44 999.5
20260504043830 58 197 5.2 8.7 0.00 0.00 0.00 44 999.7
20260504043329 58 193 4.3 9.6 0.00 0.00 0.00 44 999.8
20260504042830 58 180 4.3 9.6 0.00 0.00 0.00 44 999.9
20260504042330 58 183 5.2 8.7 0.00 0.00 0.00 44 1000.1
20260504041831 58 168 5.2 9.6 0.00 0.00 0.00 44 1000.2
20260504041329 58 217 4.3 9.6 0.00 0.00 0.00 44 1000.4
20260504040831 58 196 4.3 8.7 0.00 0.00 0.00 44 1000.5
20260504035331 58 188 5.2 9.6 0.00 0.00 0.00 43 1001.1
20260504034824 58 181 4.3 9.6 0.00 0.00 0.00 43 1001.1
20260504033819 58 196 4.3 7.8 0.00 0.00 0.00 43 1001.4
20260504033315 58 193 4.3 7.8 0.00 0.00 0.00 43 1001.5
20260504032315 58 199 3.5 7.8 0.00 0.00 0.00 43 1001.7
20260504031315 58 172 2.6 5.2 0.00 0.00 0.00 43 1001.9
20260504030815 58 184 2.6 5.2 0.00 0.00 0.00 43 1002.0
20260504025813 58 187 2.6 4.3 0.00 0.00 0.00 44 1002.2
20260504025315 59 192 1.7 4.3 0.00 0.00 0.00 44 1002.3
20260504024813 59 190 1.7 4.3 0.00 0.00 0.00 42 1002.4
20260504024314 59 199 1.7 3.5 0.00 0.00 0.00 43 1002.5
20260504023312 60 186 0.9 2.6 0.00 0.00 0.00 42 1002.6
20260504022811 60 185 0.9 2.6 0.00 0.00 0.00 41 1002.6
20260504022307 61 185 1.7 3.5 0.00 0.00 0.00 40 1002.8
20260504021805 61 184 1.7 3.5 0.00 0.00 0.00 38 1002.8
20260504020803 62 186 0.9 2.6 0.00 0.00 0.00 40 1002.9
20260504015802 63 186 0.9 1.7 0.00 0.00 0.00 38 1002.9
20260504014301 64 187 0.9 1.7 0.00 0.00 0.00 36 1003.0
20260504013802 65 187 0.9 1.7 0.00 0.00 0.00 34 1003.2
20260504012803 64 249 1.7 4.3 0.00 0.00 0.00 33 1003.3
20260504012304 64 252 1.7 5.2 0.00 0.00 0.00 32 1003.3
20260504011801 65 242 2.6 6.1 0.00 0.00 0.00 32 1003.3
20260504011301 65 262 2.6 6.1 0.00 0.00 0.00 32 1003.2
20260504010802 65 238 3.5 6.1 0.00 0.00 0.00 31 1003.3
20260504010302 66 266 3.5 7.0 0.00 0.00 0.00 31 1003.3
20260504005802 66 267 4.3 8.7 0.00 0.00 0.00 31 1003.5
20260504005301 66 265 4.3 8.7 0.00 0.00 0.00 30 1003.3
20260504004802 67 248 5.2 10.4 0.00 0.00 0.00 31 1003.5
20260504003254 67 248 7.0 12.2 0.00 0.00 0.00 30 1003.5
20260504002748 67 213 6.1 11.3 0.00 0.00 0.00 29 1003.6
20260504001740 68 256 6.1 11.3 0.00 0.00 0.00 29 1003.7
20260504001240 68 259 5.2 12.2 0.00 0.00 0.00 29 1003.8
20260504000739 68 241 5.2 12.2 0.00 0.00 0.00 28 1003.7
20260504000241 68 235 5.2 12.2 0.00 0.00 0.00 28 1003.8
20260503235739 68 263 6.1 13.0 0.00 0.00 0.00 27 1003.7
20260503235240 68 260 6.1 13.0 0.00 0.00 0.00 27 1003.9
20260503233739 68 213 7.0 14.8 0.00 0.00 0.00 28 1004.0
20260503233236 68 255 7.0 13.0 0.00 0.00 0.00 28 1004.0
20260503232736 67 277 7.0 13.0 0.00 0.00 0.00 28 1004.1
20260503232236 67 274 7.8 13.0 0.00 0.00 0.00 28 1004.2
20260503231735 67 246 7.8 13.0 0.00 0.00 0.00 28 1004.2
20260503231237 68 257 7.8 14.8 0.00 0.00 0.00 28 1004.2
20260503230736 68 293 8.7 14.8 0.00 0.00 0.00 27 1004.2
20260503230235 68 288 7.8 14.8 0.00 0.00 0.00 28 1004.2
20260503225737 68 241 7.0 13.9 0.00 0.00 0.00 28 1004.2
20260503225230 69 261 7.8 16.5 0.00 0.00 0.00 26 1004.1
20260503224731 69 281 9.6 19.1 0.00 0.00 0.00 26 1004.2
20260503224231 69 261 7.8 19.1 0.00 0.00 0.00 27 1004.1
20260503223732 69 270 7.0 14.8 0.00 0.00 0.00 26 1004.2
20260503223232 69 298 8.7 16.5 0.00 0.00 0.00 25 1004.2
20260503222233 69 278 7.8 13.9 0.00 0.00 0.00 26 1004.3
20260503220231 69 215 8.7 17.4 0.00 0.00 0.00 27 1004.5
20260503215731 70 265 7.8 17.4 0.00 0.00 0.00 25 1004.5
20260503215229 70 200 6.1 13.9 0.00 0.00 0.00 25 1004.4
20260503214729 69 244 5.2 11.3 0.00 0.00 0.00 25 1004.6
20260503214230 69 273 5.2 10.4 0.00 0.00 0.00 26 1004.5
20260503213729 69 261 7.0 13.9 0.00 0.00 0.00 25 1004.6
20260503213229 69 259 8.7 15.6 0.00 0.00 0.00 26 1004.7
20260503212730 69 312 7.8 15.6 0.00 0.00 0.00 26 1004.7
20260503212229 69 300 7.0 13.0 0.00 0.00 0.00 26 1004.8
20260503211729 68 261 7.0 16.5 0.00 0.00 0.00 27 1004.8
20260503211230 69 246 7.0 16.5 0.00 0.00 0.00 26 1004.9
20260503210730 68 284 8.7 15.6 0.00 0.00 0.00 26 1005.0
20260503210229 68 280 9.6 15.6 0.00 0.00 0.00 27 1005.0
20260503205730 68 298 8.7 15.6 0.00 0.00 0.00 26 1005.1
20260503205228 68 311 8.7 15.6 0.00 0.00 0.00 26 1005.2
20260503204731 68 254 8.7 15.6 0.00 0.00 0.00 25 1005.2
20260503204229 68 305 7.8 15.6 0.00 0.00 0.00 25 1005.3
20260503203731 68 274 6.1 15.6 0.00 0.00 0.00 25 1005.4
20260503203229 68 333 6.1 11.3 0.00 0.00 0.00 27 1005.4
20260503202230 67 225 6.1 12.2 0.00 0.00 0.00 28 1005.6
20260503201728 67 282 6.1 13.9 0.00 0.00 0.00 27 1005.6
20260503201229 67 269 7.8 13.9 0.00 0.00 0.00 27 1005.8
20260503200728 67 276 6.1 14.8 0.00 0.00 0.00 28 1005.9
20260503200229 67 294 4.3 14.8 0.00 0.00 0.00 28 1005.9
20260503195729 67 348 6.1 13.0 0.00 0.00 0.00 26 1006.0
20260503195228 66 340 7.0 17.4 0.00 0.00 0.00 28 1006.0
20260503194730 66 320 8.7 17.4 0.00 0.00 0.00 27 1006.1
20260503194229 66 321 8.7 15.6 0.00 0.00 0.00 27 1006.1
20260503193730 66 295 6.1 14.8 0.00 0.00 0.00 27 1006.1
20260503193229 66 316 7.0 13.9 0.00 0.00 0.00 29 1006.1
20260503192728 65 269 7.8 13.9 0.00 0.00 0.00 29 1006.3
20260503192230 65 340 7.0 13.0 0.00 0.00 0.00 28 1006.2
20260503191730 65 347 7.0 14.8 0.00 0.00 0.00 29 1006.2
20260503191229 65 288 7.8 14.8 0.00 0.00 0.00 29 1006.3
20260503190728 65 297 7.8 18.2 0.00 0.00 0.00 29 1006.4
20260503190229 65 278 8.7 18.2 0.00 0.00 0.00 28 1006.6
20260503185729 65 288 9.6 17.4 0.00 0.00 0.00 28 1006.6
20260503183729 65 279 9.6 15.6 0.00 0.00 0.00 27 1006.9
20260503183230 64 317 9.6 19.1 0.00 0.00 0.00 27 1006.9
20260503182730 64 323 9.6 19.1 0.00 0.00 0.00 26 1007.1
20260503182229 64 256 10.4 15.6 0.00 0.00 0.00 25 1007.0
20260503181730 64 301 9.6 20.0 0.00 0.00 0.00 25 1007.0
20260503181230 64 336 9.6 20.0 0.00 0.00 0.00 25 1007.1
20260503180729 64 320 8.7 17.4 0.00 0.00 0.00 24 1007.1
20260503180233 64 344 9.6 20.9 0.00 0.00 0.00 24 1007.1
20260503175731 64 329 10.4 20.9 0.00 0.00 0.00 24 1007.2
20260503175230 64 318 10.4 19.1 0.00 0.00 0.00 24 1007.2
20260503174728 64 308 8.7 16.5 0.00 0.00 0.00 23 1007.2
20260503174223 63 265 8.7 15.6 0.00 0.00 0.00 23 1007.2
20260503173712 63 321 9.6 20.0 0.00 0.00 0.00 22 1007.3
20260503173216 63 292 9.6 20.0 0.00 0.00 0.00 22 1007.4
20260503172214 63 348 9.6 17.4 0.00 0.00 0.00 24 1007.4
20260503171712 63 319 8.7 17.4 0.00 0.00 0.00 25 1007.4
20260503171211 63 313 10.4 16.5 0.00 0.00 0.00 31 1007.5
20260503170712 62 324 10.4 18.2 0.00 0.00 0.00 31 1007.3
20260503170210 62 296 9.6 18.2 0.00 0.00 0.00 31 1007.4
20260503160201 61 307 10.4 17.4 0.00 0.00 0.00 37 1007.3
20260503150701 61 294 9.6 20.0 0.00 0.00 0.00 46 1007.0
20260503150202 61 338 9.6 16.5 0.00 0.00 0.00 46 1007.0
20260503140108 58 350 10.4 16.5 0.00 0.00 0.00 57 1006.9
20260503131104 55 342 7.8 16.5 0.00 0.00 0.00 61 1006.6
20260503130106 54 347 7.8 13.0 0.00 0.00 0.00 62 1006.6
20260503110529 40 53 0.0 1.7 0.00 0.00 0.00 87 1004.9
20260503081444 49 70 0.0 0.9 0.00 0.00 0.00 67 1004.8
20260503080946 49 70 0.9 2.6 0.00 0.00 0.00 66 1004.9
20260503080443 49 70 0.9 2.6 0.00 0.00 0.00 66 1005.0
20260503072942 51 79 0.9 1.7 0.00 0.00 0.00 62 1005.0
20260503072440 51 55 0.0 1.7 0.00 0.00 0.00 61 1005.1
20260503071441 52 56 1.7 4.3 0.00 0.00 0.00 60 1005.3
20260503070940 52 41 2.6 4.3 0.00 0.00 0.00 60 1005.4
20260503070440 52 26 1.7 3.5 0.00 0.00 0.00 60 1005.4